Dewpoint
72 73 74 75 75 75 75 75 75 75 75 75 74 74 74 74 74 74 74 74 74 73 73 73 73 73 73 73 73 73 73 73 73 72 72 72 73 73 73 73 73 73 73 73 73 73 73 73 73 73 73 73 73 73 72 72 72 71 71 71 71 70 70 70 70 70 70 69 69 68 69 69 69 69 69 68 68 68 68 69 68 67 67 67 68
71 73 73 74 75 75 75 75 75 75 75 75 75 74 74 73 74 74 74 74 74 73 73 73 73 73 73 73 73 73 73 73 73 72 72 72 72 73 73 73 72 73 73 74 73 73 73 73 73 73 72 72 72 72 72 72 72 71 71 71 72 71 70 70 70 70 70 70 70 70 69 69 69 70 69 69 68 68 67 68 68 67 67 68 68
72 73 73 74 75 75 75 75 75 75 75 75 75 75 74 74 74 74 74 74 73 73 73 73 73 73 73 73 73 73 73 73 72 72 72 72 72 73 72 73 73 73 74 74 74 74 74 73 73 73 72 72 73 73 72 72 72 71 71 71 71 71 71 71 70 70 70 70 70 70 69 69 69 69 69 68 69 69 68 69 68 68 66 68 68
72 73 73 74 75 75 75 75 75 75 75 75 75 74 74 74 74 74 73 73 73 73 73 73 73 73 73 73 73 73 73 72 72 72 72 72 72 72 72 73 73 73 73 74 74 74 74 73 73 73 73 72 72 72 72 72 72 71 71 72 72 71 71 70 71 70 69 69 69 69 69 67 68 69 68 69 69 69 68 68 68 68 68 68 69
72 73 73 74 74 75 75 75 75 75 75 75 75 74 74 74 74 74 73 73 73 73 73 73 73 73 73 72 72 72 73 73 72 72 72 72 72 72 73 73 73 73 73 74 74 74 74 74 74 73 73 73 73 72 72 72 71 71 71 71 71 71 71 71 71 71 70 69 69 69 67 67 67 69 69 69 69 68 68 68 68 68 68 68 69
71 73 73 73 74 74 75 75 75 75 75 75 74 74 74 74 74 74 74 73 73 73 73 73 73 73 73 72 72 72 72 72 72 72 72 72 72 73 73 73 73 73 73 74 74 74 73 74 74 73 74 74 73 73 72 72 72 71 71 71 71 71 71 71 71 71 70 70 70 68 67 67 67 67 68 68 69 69 69 68 68 68 69 69 69
71 73 73 73 73 74 75 75 75 75 75 74 74 74 74 74 74 73 74 73 73 73 73 73 73 73 73 72 72 72 72 72 72 72 72 72 72 73 73 73 73 73 73 73 73 73 73 73 73 74 74 73 73 73 73 72 72 72 71 71 71 70 70 70 70 70 69 69 66 67 67 67 67 67 68 68 69 69 69 68 68 69 69 69 69
72 72 73 73 73 74 75 75 75 74 75 74 74 74 74 74 74 74 73 73 73 73 73 73 73 73 73 72 72 72 72 72 72 72 72 72 72 73 73 73 73 73 73 73 73 73 73 73 74 73 73 73 73 73 73 73 72 71 71 71 71 70 70 70 70 69 69 67 66 66 67 67 67 67 68 69 69 69 69 68 69 69 69 69 69
71 72 72 73 73 74 74 74 74 74 74 74 74 74 74 74 74 74 73 73 73 73 73 73 73 73 72 72 72 72 72 72 72 72 71 72 72 73 73 73 73 73 72 72 73 73 73 73 73 73 73 73 74 73 73 73 72 72 72 71 70 70 70 70 70 69 68 67 67 67 67 67 67 67 69 69 70 69 69 69 69 69 68 69 69
70 71 72 73 73 75 74 74 74 74 74 74 74 74 74 74 73 73 73 73 73 73 73 72 73 73 73 73 72 72 72 71 71 71 71 72 72 72 72 72 72 72 72 72 72 73 73 73 73 73 73 74 73 73 73 72 72 72 72 71 70 70 70 69 69 69 67 68 68 68 68 69 67 68 69 69 69 69 69 70 69 68 67 67 68
70 71 72 73 73 74 74 74 74 74 74 74 74 74 73 73 73 73 73 73 73 73 72 72 73 73 73 72 72 72 72 71 72 71 71 71 72 72 72 72 72 72 72 72 72 73 73 74 73 73 73 73 73 73 73 73 72 72 71 71 70 70 70 69 68 67 68 68 68 68 69 70 67 67 69 69 70 70 69 69 69 69 68 67 67
69 71 72 73 74 74 74 74 74 74 74 74 74 74 73 73 73 73 73 72 72 72 72 72 72 73 72 72 72 72 72 71 72 71 71 71 71 71 71 72 72 72 72 72 72 73 73 74 73 73 72 72 73 73 73 73 72 72 71 70 70 70 70 69 67 68 68 68 68 68 67 67 67 67 70 70 70 69 69 68 68 68 67 67 66
69 71 72 73 73 74 74 74 74 74 74 73 74 74 74 73 73 73 73 73 72 72 72 73 73 73 73 72 72 72 72 71 72 71 71 71 71 71 71 72 72 72 71 71 72 72 73 73 73 73 72 72 72 72 72 72 72 72 71 71 70 70 69 69 67 68 68 68 68 68 68 68 68 69 69 69 69 69 68 68 67 67 66 65 63
69 71 72 73 73 74 74 74 74 74 74 74 74 73 73 73 73 73 73 73 73 72 73 73 73 73 73 72 72 71 71 71 72 71 71 71 70 70 70 71 72 72 71 71 72 72 73 73 73 72 72 72 72 72 72 72 72 71 70 70 70 70 70 70 70 69 69 68 69 68 68 69 68 69 69 69 69 68 67 65 65 65 64 61 61
69 71 72 72 73 73 74 74 74 74 74 73 73 73 74 73 73 73 73 73 73 73 73 73 73 73 73 72 72 71 71 71 71 70 70 70 70 71 71 72 72 71 71 71 71 71 72 73 72 72 72 72 72 72 72 72 71 71 70 70 70 70 69 69 69 68 68 69 68 68 68 68 69 69 69 69 67 65 63 62 63 62 62 61 60
70 71 72 72 72 73 73 74 74 74 74 74 73 73 73 73 73 73 73 73 73 73 73 73 73 73 73 72 71 71 71 71 71 71 72 71 71 71 71 72 71 71 70 70 71 71 71 72 72 72 72 72 72 72 72 71 71 71 71 71 70 70 70 69 68 68 68 68 68 69 68 68 68 68 68 67 65 64 62 62 62 62 61 61 61
71 71 71 72 72 72 72 73 73 74 74 74 73 73 73 73 73 73 73 73 73 73 73 73 73 73 73 72 71 71 71 71 71 71 71 71 71 71 71 71 71 71 70 70 70 71 72 72 72 72 71 71 71 71 71 72 72 71 71 71 70 70 69 69 68 68 68 68 68 67 67 67 68 68 67 66 65 64 62 62 62 62 61 61 60
71 71 71 71 72 72 72 72 72 72 73 73 73 73 73 73 73 73 73 73 73 73 73 73 73 73 73 72 71 71 71 71 71 71 71 71 71 71 70 71 71 70 70 70 69 71 71 72 72 72 71 71 71 72 71 71 71 71 71 71 70 70 70 70 68 68 68 69 68 68 66 67 66 66 66 66 65 63 62 62 62 61 60 60 60
70 71 71 71 71 71 71 72 72 72 72 72 72 72 73 73 73 73 73 73 73 73 73 73 73 73 73 72 71 71 70 71 71 70 71 71 71 71 70 70 70 70 70 69 69 69 71 72 72 72 71 71 72 71 71 71 71 71 72 71 71 70 70 69 68 68 68 67 67 66 65 66 66 66 65 65 64 64 62 61 61 60 60 59 60
70 70 71 71 71 71 71 72 72 71 71 71 71 72 72 73 73 73 73 73 73 73 73 73 73 72 73 72 72 70 70 69 70 69 70 71 71 70 70 70 70 70 70 69 69 69 70 71 71 72 71 71 72 71 71 72 72 71 71 70 70 69 67 67 67 67 67 67 67 66 66 66 65 64 64 63 63 62 62 62 60 59 59 59 59
69 70 70 70 71 71 71 71 71 71 71 71 71 71 71 72 72 72 72 72 72 72 72 72 72 72 72 72 72 70 69 69 69 68 69 70 70 70 70 69 70 70 69 69 69 69 69 69 71 71 71 71 71 71 72 72 71 71 71 70 70 68 67 67 68 68 67 67 67 66 66 65 65 64 63 63 63 62 61 61 60 59 58 59 59
68 69 69 70 70 70 71 71 71 70 70 70 70 71 71 71 70 71 71 71 71 71 70 70 71 70 72 71 71 70 69 69 68 70 70 70 70 70 70 69 69 70 70 69 69 69 68 70 70 71 71 71 71 69 71 71 71 70 70 70 68 67 67 67 67 67 67 66 67 66 66 65 64 63 62 61 61 61 61 60 59 59 59 59 59
67 68 69 69 70 70 70 70 70 70 70 70 70 70 69 70 70 70 70 70 70 71 70 71 70 70 71 71 71 70 69 69 69 70 70 70 70 70 69 69 69 70 70 70 69 69 69 69 68 70 71 70 67 67 68 69 70 70 70 68 67 67 67 67 67 66 66 66 65 66 65 64 64 64 62 61 61 61 60 60 59 59 59 58 58
67 67 68 69 69 70 70 70 70 70 69 69 69 69 69 69 69 69 69 69 69 70 70 70 69 69 70 70 70 69 69 68 71 71 71 69 69 69 69 68 68 69 70 70 69 69 69 69 69 69 70 69 66 66 67 68 68 68 67 67 67 66 66 66 66 66 67 67 65 65 65 64 63 63 62 62 61 61 60 59 60 59 59 58 57
67 67 68 68 69 69 69 70 70 69 69 69 69 69 69 69 69 69 68 69 69 70 70 69 69 69 69 69 69 69 69 69 70 70 69 69 68 67 67 67 65 66 70 65 65 67 67 65 66 67 63 65 64 64 66 67 68 68 67 67 67 66 66 66 66 66 65 64 64 64 64 63 62 62 61 61 60 60 59 59 59 59 58 57 57
67 67 67 68 68 69 69 70 69 69 69 68 68 69 69 68 68 68 68 68 69 69 69 69 69 68 69 69 69 68 68 68 69 69 69 69 68 67 66 66 64 65 68 65 64 63 64 64 64 64 64 62 62 64 67 68 68 67 67 67 66 66 66 66 65 64 64 63 63 63 63 62 62 61 60 60 59 59 59 59 59 58 57 59 58
67 66 67 68 68 68 69 69 69 69 68 68 68 69 68 68 68 68 67 67 68 68 69 69 68 68 68 68 68 67 67 68 68 68 69 68 68 67 66 66 65 65 66 65 64 63 63 63 62 62 62 61 60 64 67 68 68 67 67 67 66 66 65 64 63 63 63 63 63 63 62 61 61 61 60 59 60 59 58 58 58 57 56 57 58
66 66 67 67 68 68 69 69 69 68 68 68 68 68 68 68 68 68 67 67 67 68 68 68 68 68 68 68 68 67 67 67 67 68 68 68 68 67 66 66 66 65 65 65 64 64 63 62 62 61 60 60 59 64 66 68 68 67 67 66 65 64 63 63 62 62 62 62 62 62 62 61 61 60 60 59 60 59 58 58 58 57 57 57 57
65 65 66 67 68 68 68 69 69 68 68 68 67 67 67 67 67 67 67 68 67 67 67 67 67 67 67 67 67 66 66 66 66 68 68 68 68 67 66 66 66 65 65 64 64 64 63 62 61 61 59 59 59 64 67 67 67 67 66 65 64 63 62 62 61 61 61 61 61 61 61 60 60 60 60 59 58 58 59 58 58 57 57 58 57
64 65 66 67 68 68 68 68 68 68 68 67 67 67 67 67 67 67 66 67 66 66 66 66 66 66 66 67 67 66 66 65 66 67 68 67 67 67 66 66 65 65 65 63 64 63 64 63 61 60 58 58 59 65 66 66 66 66 66 64 64 63 62 61 60 60 60 60 61 61 61 60 60 60 59 58 58 58 58 58 58 57 57 57 56
65 65 66 67 68 67 67 68 68 68 67 67 66 67 67 66 66 66 66 66 66 66 66 65 65 65 65 66 66 66 66 65 65 66 67 67 67 67 66 66 65 64 65 63 62 64 63 63 62 59 58 58 61 65 65 66 66 66 66 64 64 63 61 60 60 60 60 60 60 59 59 59 59 59 60 59 58 58 57 58 58 57 57 57 57
64 65 66 67 67 67 67 68 68 68 67 66 66 66 67 66 66 66 66 66 66 66 65 65 65 64 64 65 65 65 66 65 65 65 66 66 66 66 66 65 65 64 65 63 61 62 63 63 62 59 59 61 63 64 64 65 65 66 65 65 64 62 60 60 59 60 59 59 58 57 57 58 59 59 58 59 58 58 58 58 58 57 57 56 56
64 65 66 67 67 67 67 68 68 68 67 66 66 66 67 66 66 66 66 66 65 66 65 65 65 64 64 64 65 64 66 65 65 64 66 65 65 66 65 65 64 63 64 63 60 60 61 62 61 59 60 62 63 63 64 64 65 65 65 65 64 61 59 59 59 59 58 57 57 57 57 58 58 58 58 58 58 58 57 57 57 57 56 56 55
64 65 66 66 67 67 67 68 68 68 67 66 66 66 67 66 66 66 67 66 65 66 66 65 66 65 64 64 65 64 65 64 64 64 64 64 64 64 64 64 64 63 64 63 60 59 60 61 60 62 63 62 62 63 63 63 64 64 64 65 64 61 59 59 58 58 57 57 57 57 57 57 57 57 58 58 58 58 58 57 57 57 56 56 55
65 65 65 66 67 67 67 67 68 68 67 67 66 66 67 66 66 66 66 66 65 66 67 66 66 65 65 64 64 64 65 64 64 63 63 63 64 63 63 63 63 63 63 63 60 58 60 60 61 61 61 62 62 63 62 62 62 63 63 64 64 61 59 58 58 57 57 57 57 57 57 57 57 57 58 56 59 57 57 57 57 56 55 54 55
65 65 65 66 66 66 67 67 68 68 67 67 66 66 66 66 66 67 66 67 66 66 67 67 67 66 66 65 64 64 65 64 64 63 63 63 64 63 63 63 63 63 63 62 61 59 60 61 62 61 61 62 62 62 62 62 62 62 61 61 61 60 58 58 57 57 56 56 57 57 56 56 56 56 59 55 55 58 57 57 56 56 56 54 54
66 66 65 66 66 66 67 67 67 68 68 67 66 66 66 66 66 66 66 67 66 66 67 68 67 67 67 65 64 65 65 63 63 64 63 63 63 63 62 63 64 63 63 62 62 60 61 62 62 61 61 61 61 61 61 61 60 59 58 58 58 59 58 58 57 56 57 56 56 56 56 55 57 61 55 54 54 55 57 57 57 56 56 55 53
67 66 66 66 65 66 66 67 67 68 68 67 66 65 66 66 66 66 67 67 66 67 67 68 68 67 68 65 64 65 66 65 63 64 63 64 64 63 63 64 64 63 63 63 62 62 62 62 61 61 61 61 60 60 59 59 58 58 57 56 56 57 58 57 58 60 56 56 56 56 55 55 57 55 53 53 53 54 54 57 57 57 56 56 54
67 67 66 66 66 65 66 67 66 67 68 68 67 66 66 66 66 66 66 67 66 67 68 68 68 67 67 66 64 65 66 65 64 65 64 64 63 62 62 64 64 63 63 62 62 63 62 62 61 62 62 61 60 60 59 58 57 56 55 55 54 54 55 57 58 56 56 56 56 56 56 55 55 53 52 52 52 52 52 53 53 53 55 56 55
64 65 67 66 66 65 66 66 66 67 68 68 68 66 66 66 66 66 66 66 66 67 67 68 68 67 67 66 65 65 65 65 64 65 64 64 63 62 62 64 64 63 62 62 63 62 62 61 62 62 61 61 60 59 58 56 56 55 54 53 54 54 55 56 55 56 56 56 56 56 55 55 54 52 52 52 52 51 51 51 55 52 53 55 55
65 65 66 66 66 65 65 66 66 66 67 67 67 66 65 66 66 66 65 66 66 67 67 68 67 67 67 66 65 65 64 65 64 65 64 64 62 62 62 64 64 63 62 62 63 62 63 63 64 63 61 59 58 57 57 55 53 52 52 52 53 56 58 54 51 54 55 56 56 55 55 54 52 51 51 51 51 51 50 50 51 50 51 52 54
66 66 66 66 66 65 65 65 66 66 66 67 67 66 66 66 66 66 66 66 66 66 66 67 67 67 67 66 65 65 64 65 65 64 65 63 62 61 62 63 64 63 62 62 63 65 64 64 63 61 60 59 58 57 57 55 53 51 50 50 52 52 55 55 54 51 52 53 54 54 54 53 51 51 50 50 49 49 49 49 49 48 49 50 50
66 67 67 66 66 66 66 66 66 65 66 67 67 66 67 66 66 66 66 66 66 67 66 67 67 67 67 66 66 65 64 65 64 64 64 64 62 62 62 63 65 64 62 63 64 64 64 64 62 61 59 58 58 58 57 56 54 53 52 50 48 47 50 52 53 54 53 51 50 51 53 52 51 50 50 49 48 48 49 49 48 47 49 50 50
67 66 66 66 66 66 66 66 66 66 66 66 67 67 67 66 66 66 66 66 66 67 66 67 67 67 66 66 66 65 64 65 64 63 63 65 62 62 62 63 65 64 63 64 64 64 64 63 62 61 60 57 57 57 58 57 54 52 50 51 50 48 46 46 48 49 54 51 49 48 51 51 51 50 49 48 47 47 48 47 46 46 48 50 50
67 66 66 66 66 65 66 66 66 66 66 66 66 66 67 66 66 66 66 66 66 66 65 66 66 67 66 66 65 65 64 64 64 63 63 65 64 63 62 63 64 64 65 64 64 64 64 64 63 61 59 58 57 56 58 57 55 55 54 52 51 50 49 49 48 46 51 48 49 48 49 47 47 48 49 48 47 46 48 47 45 45 47 49 50
66 67 66 67 66 66 66 66 66 66 66 66 66 66 66 65 65 65 64 64 64 65 64 64 65 66 66 66 65 65 64 64 64 63 63 65 65 63 63 63 64 65 65 65 65 64 64 64 63 61 60 59 57 57 57 58 56 57 55 55 53 51 52 52 44 43 50 53 50 49 47 45 46 48 48 46 46 45 49 47 45 45 46 48 50
66 67 67 66 66 66 66 67 66 66 66 66 66 66 65 65 65 65 65 64 64 64 65 65 65 66 66 65 65 65 64 64 64 63 64 66 65 64 63 63 64 65 65 65 65 64 64 64 64 63 61 59 58 57 57 57 56 57 58 60 61 58 54 48 46 46 42 45 49 49 47 47 48 48 48 47 48 47 47 47 46 44 45 48 49
66 67 67 67 66 66 66 66 66 66 66 66 66 65 65 65 65 64 65 64 64 64 64 64 65 66 65 65 65 64 64 64 64 63 64 66 66 64 63 64 65 65 65 65 65 65 65 64 64 63 62 60 58 57 57 57 55 56 58 58 60 56 53 53 50 46 43 42 45 48 49 49 49 48 47 47 48 47 46 46 44 43 44 47 48
65 65 66 67 67 66 67 67 66 66 67 66 66 65 65 65 65 64 64 64 64 64 64 64 65 65 65 65 65 63 64 64 64 63 64 67 66 65 64 64 65 65 65 65 65 65 64 64 64 63 62 61 59 58 58 57 57 56 57 57 57 55 53 54 51 51 48 45 45 45 45 47 47 48 48 47 46 46 46 45 43 42 45 47 47
64 64 64 65 66 67 67 67 66 66 67 66 66 65 65 65 64 64 64 64 64 64 64 64 64 65 64 64 64 63 63 64 64 63 64 67 67 66 65 65 65 65 65 64 64 64 65 65 64 63 63 62 60 60 58 58 58 58 57 57 58 57 54 53 51 51 49 48 46 45 46 45 44 46 48 48 47 45 44 44 44 45 42 45 47
62 64 64 65 66 67 67 66 66 67 67 66 66 65 65 65 64 64 64 64 63 63 63 63 64 64 64 64 64 63 63 63 64 64 63 66 67 66 65 66 66 65 65 64 64 64 65 65 65 64 63 62 62 60 59 59 59 59 58 58 58 59 57 53 53 51 50 48 47 47 46 45 44 45 46 47 47 45 44 43 43 45 42 43 46